Theta_e
316 316 315 315 315 315 316 317 317 317 317 317 317 317 317 318 314 299 296 304 310 319 315 299 297 295 293 292 295 297 290 285 287 288 289 291 290 293 293 293 293 298 298 301 297
316 316 315 315 315 315 316 316 316 317 317 317 317 316 317 317 302 294 305 315 315 317 299 295 293 294 289 290 293 293 286 288 291 290 288 289 287 288 289 289 289 293 297 295 294
316 316 316 315 315 315 316 316 316 316 316 316 316 316 316 311 295 293 311 314 315 310 299 298 294 293 289 290 290 291 288 290 289 289 288 288 287 288 285 285 287 288 289 291 291
315 316 316 315 315 316 316 316 316 316 316 316 315 316 317 299 286 296 312 312 313 303 298 296 294 289 287 287 289 287 289 289 291 291 289 287 288 286 286 287 289 288 288 288 291
315 315 315 315 315 315 316 316 315 316 316 315 315 316 303 291 289 300 309 305 301 299 296 294 291 289 286 287 287 285 286 289 289 289 288 288 286 286 286 290 290 290 290 288 289
315 315 315 315 315 314 315 315 315 315 315 314 314 314 295 287 298 299 299 300 298 297 295 295 292 293 288 286 284 287 288 287 287 288 288 285 284 284 286 286 288 289 289 288 288
315 314 314 314 314 314 315 315 314 313 313 313 314 306 291 290 296 297 298 297 297 297 293 295 295 291 289 286 290 288 285 284 285 285 284 284 282 281 286 286 286 287 287 288 289
315 314 314 314 314 314 314 315 314 314 314 313 313 299 287 296 295 297 297 296 298 298 296 296 297 294 290 289 286 281 280 277 281 283 284 282 278 283 284 285 286 287 288 287 288
315 314 314 314 314 314 314 314 314 312 312 311 295 290 287 300 293 296 295 294 296 295 295 299 295 287 285 281 278 277 274 275 278 283 283 281 278 284 285 285 285 286 286 286 286
315 314 314 314 314 314 315 312 310 303 301 300 296 286 290 288 293 295 295 296 293 292 290 290 285 280 278 277 274 275 275 276 275 279 282 280 280 284 286 284 284 284 284 284 285
316 315 314 314 314 314 305 293 288 287 289 285 287 287 290 294 295 293 295 293 291 287 280 285 280 277 275 278 278 278 278 276 277 282 280 279 279 282 285 282 282 282 283 284 285
316 315 314 314 313 312 297 289 288 287 282 290 290 290 293 292 287 290 294 286 285 280 281 279 277 279 282 282 281 280 278 274 279 281 280 278 279 282 282 281 282 283 283 284 285
316 315 314 313 312 300 294 292 299 294 280 285 289 289 290 291 286 286 290 287 282 280 279 276 279 283 281 279 279 278 277 277 276 280 278 277 276 277 280 282 283 284 285 286 285
317 315 314 312 301 296 293 298 297 291 279 283 283 288 289 289 284 292 290 286 284 279 279 278 281 281 280 279 279 277 280 280 279 274 267 277 268 275 278 280 283 284 283 283 284
316 315 313 309 299 294 296 298 295 290 274 284 283 291 289 284 284 286 290 286 281 281 278 279 279 279 279 280 280 278 281 280 279 271 267 267 265 273 277 278 280 282 283 283 284
316 314 312 306 301 300 298 293 290 282 274 281 283 281 282 284 284 285 285 288 286 282 281 277 282 281 280 281 281 282 279 277 275 269 262 266 268 272 274 277 277 280 282 283 283
315 313 308 306 298 301 298 292 285 280 283 279 279 281 280 281 281 281 281 280 278 275 275 279 280 281 282 278 281 280 274 266 266 264 268 271 267 274 277 278 279 280 281 282 283
314 311 306 304 302 300 296 288 279 282 276 281 281 280 278 281 280 280 278 276 278 276 273 272 273 280 282 279 277 276 274 267 263 263 265 272 267 274 279 280 280 281 281 282 282
312 305 302 301 303 301 293 281 283 283 284 279 280 276 276 280 278 277 276 275 278 279 275 272 274 280 281 281 278 277 273 275 263 258 262 266 272 276 280 279 280 280 280 280 281
303 300 297 303 303 297 287 285 283 287 284 282 278 279 274 274 274 273 275 278 279 282 280 277 272 278 280 280 280 278 280 271 267 262 260 266 266 273 277 278 278 278 279 280 283
301 294 297 302 300 290 283 280 283 287 285 283 280 279 278 278 276 271 275 279 280 280 281 278 275 274 279 277 275 276 275 274 272 269 263 262 271 275 277 278 278 278 280 280 282
297 286 295 298 286 285 283 283 288 284 287 284 283 281 280 280 279 275 274 277 283 283 280 281 276 268 274 275 277 278 276 275 267 266 267 268 270 279 279 279 279 280 282 281 282
291 286 294 295 284 282 284 283 284 282 284 285 285 284 283 281 281 276 273 280 284 283 281 280 272 264 271 273 277 276 277 278 274 272 268 264 272 278 278 278 281 281 280 282 283
286 281 285 287 287 285 283 283 282 286 283 285 284 283 282 280 282 280 276 282 284 282 287 284 273 271 272 273 274 273 276 278 275 266 271 272 276 280 282 282 282 282 280 281 281
290 283 285 281 283 285 285 285 281 282 284 285 282 282 283 280 280 279 280 282 283 286 283 281 268 270 271 273 273 275 275 276 275 276 271 277 275 279 282 282 282 282 281 279 281
286 286 285 278 281 284 286 284 283 284 283 282 281 283 284 281 283 280 282 282 281 282 281 279 267 268 266 270 271 271 275 275 276 276 276 276 275 282 283 283 279 278 277 278 279
293 292 288 284 283 283 283 284 284 287 286 286 284 285 281 284 287 287 287 285 284 281 280 278 271 266 267 267 265 268 271 273 275 275 275 272 277 281 279 278 278 273 278 278 278
Wind_Speed
11 13 13 13 13 13 13 13 13 13 13 14 15 15 15 16 11 5 6 5 9 15 11 5 4 5 3 2 3 3 4 3 4 4 3 4 6 4 2 4 4 2 4 3 5
10 12 13 13 13 13 14 13 13 13 14 14 15 15 14 13 2 6 3 13 13 13 5 4 3 4 4 3 4 4 4 7 2 1 2 4 0 3 5 4 4 5 3 8 9
9 11 12 13 14 14 14 14 14 14 15 16 16 16 15 6 1 3 12 15 13 10 3 0 2 2 3 3 4 2 5 2 2 1 3 3 4 2 2 6 7 3 6 7 5
10 11 12 14 14 15 15 15 14 14 14 15 15 15 13 1 2 3 14 14 10 7 3 3 4 3 3 4 1 2 2 1 2 2 5 6 7 6 8 10 4 4 4 4 6
9 10 12 13 14 15 15 15 15 15 14 14 15 15 4 3 1 4 12 10 4 4 6 3 4 2 5 2 1 2 1 3 3 7 7 5 8 7 10 12 8 6 5 6 7
9 10 11 13 14 14 15 14 14 15 14 14 13 12 2 2 2 5 7 4 6 5 6 6 3 1 5 2 1 1 3 6 3 3 2 5 6 2 6 0 5 4 8 9 8
7 9 10 12 14 15 15 15 14 14 13 12 10 3 1 2 2 5 7 2 3 2 2 3 1 2 2 2 2 2 6 6 0 2 1 3 10 10 7 2 6 8 10 10 11
7 8 10 13 14 16 16 15 16 16 13 8 6 1 3 1 1 3 6 3 6 3 2 2 3 4 3 1 5 3 3 4 1 5 2 4 13 6 3 3 9 12 12 9 13
7 7 9 12 14 16 17 18 16 9 6 5 1 1 4 4 3 3 3 3 5 3 4 3 4 3 4 3 4 6 2 2 8 3 4 1 11 12 4 5 9 13 12 9 10
8 7 8 10 13 16 19 18 6 2 2 1 1 2 3 3 3 4 4 4 3 3 4 6 5 3 4 4 4 2 3 4 6 3 5 10 22 24 21 7 11 12 9 9 8
8 7 7 9 12 15 11 5 7 4 6 2 1 2 3 6 1 3 4 3 2 6 3 4 4 3 3 1 2 4 1 4 5 3 6 9 14 25 22 8 11 10 9 7 9
10 8 7 9 12 14 3 5 1 2 8 1 1 2 1 1 3 3 5 1 2 1 2 4 3 2 4 2 2 1 1 5 6 2 3 10 22 27 12 6 7 7 7 8 6
10 8 6 6 10 5 2 1 1 1 2 4 1 0 1 2 0 3 4 0 2 2 1 4 1 4 2 1 2 3 4 2 4 7 2 11 9 7 4 3 3 5 6 7 8
11 8 4 4 3 2 2 1 2 1 5 3 1 1 1 1 1 1 1 1 2 2 2 4 1 3 0 2 4 4 3 1 5 5 3 6 11 9 5 10 7 9 8 9 8
11 8 4 3 0 2 3 1 2 3 5 1 1 2 1 2 0 1 2 0 3 3 4 2 3 3 2 4 3 3 1 2 1 3 6 6 3 13 5 7 10 8 10 8 8
9 12 11 3 2 1 3 3 3 7 8 1 0 1 0 0 1 1 1 4 1 3 1 4 1 3 3 2 0 4 1 4 3 4 2 5 5 8 5 7 4 4 6 9 9
3 16 7 4 4 1 1 2 4 4 4 6 3 0 1 2 1 1 1 1 4 3 3 2 3 0 1 2 2 2 5 6 8 6 6 3 2 16 9 7 7 9 11 9 8
14 15 4 2 1 5 3 6 4 2 5 3 3 2 3 3 1 0 0 3 3 3 2 3 6 6 4 3 4 2 5 7 6 3 7 2 10 11 6 8 8 9 9 9 9
13 2 3 1 2 4 6 1 4 2 3 3 3 1 3 1 2 1 6 5 6 9 9 4 4 2 0 1 2 2 2 3 7 1 3 4 9 14 8 9 10 11 7 10 9
2 3 2 2 2 4 3 7 8 8 9 5 3 3 3 3 1 2 3 4 3 6 1 4 2 1 0 2 3 3 6 4 4 2 7 8 9 8 6 6 4 6 8 11 16
2 2 2 3 2 3 4 6 5 4 4 7 3 3 2 1 3 3 4 3 1 3 3 4 4 2 2 7 8 2 2 3 4 5 6 5 11 10 10 7 7 6 9 11 16
3 2 1 1 2 2 3 6 4 3 2 2 4 7 6 3 3 4 6 5 0 5 6 4 3 4 9 2 1 3 6 6 6 6 4 2 17 4 9 6 6 8 11 13 14
2 2 0 0 6 4 1 3 3 5 5 7 7 7 5 8 3 4 3 3 2 4 5 4 2 3 8 5 4 5 6 4 4 3 10 6 16 1 4 4 8 14 13 15 17
3 3 0 1 1 3 5 5 6 4 4 4 4 4 1 2 3 2 3 1 3 1 1 7 2 7 7 4 3 5 6 10 6 4 6 15 34 28 21 22 17 16 12 14 16
3 6 6 7 8 7 6 4 6 6 6 6 4 9 8 6 4 6 5 2 2 3 2 3 6 2 4 6 5 11 7 10 18 20 12 31 19 32 24 22 20 18 17 12 16
3 3 1 2 2 15 16 20 21 10 10 7 9 11 14 12 13 9 7 6 6 2 6 3 4 2 6 4 4 14 14 19 25 25 23 31 36 31 30 24 10 10 10 12 16
2 1 1 5 5 9 16 25 21 13 11 9 15 9 12 22 11 3 5 4 5 7 9 6 5 2 8 4 8 17 17 28 14 8 17 21 30 18 17 15 8 8 11 12 15
Wind_Direction
7 4 1 358 353 353 351 354 355 351 350 346 348 346 345 343 338 18 36 284 324 321 332 300 45 7 41 66 51 123 64 237 257 183 262 8 9 321 286 265 313 265 180 142 322
0 0 357 355 353 352 352 351 350 347 345 347 345 343 344 344 342 43 318 333 334 340 347 13 37 23 43 43 23 87 138 223 240 300 281 305 252 317 334 325 278 299 337 349 345
345 346 351 352 349 347 347 347 347 346 345 345 344 342 336 347 343 320 336 340 340 344 215 268 91 66 78 52 13 147 200 215 270 280 356 290 282 234 263 289 238 282 294 315 322
335 338 344 348 348 346 345 343 341 341 342 341 342 338 328 319 258 286 339 338 344 357 86 36 30 64 94 142 299 207 183 178 316 24 338 300 303 280 195 233 208 251 272 297 323
329 331 337 340 343 341 340 338 336 336 335 338 339 339 353 37 299 327 340 343 11 23 47 51 56 71 135 137 333 206 338 308 289 293 264 292 259 251 258 262 279 276 294 276 270
326 327 330 332 337 337 334 332 331 330 327 329 333 339 0 314 304 341 345 6 20 25 15 42 98 116 94 90 131 293 282 275 276 286 312 299 267 26 253 291 306 281 277 287 278
319 325 327 327 331 334 331 325 323 320 315 315 325 355 2 220 342 332 13 8 8 21 49 43 83 98 147 99 330 323 328 325 96 345 330 286 293 227 254 313 299 299 299 300 298
305 321 328 327 329 329 325 317 311 305 296 296 320 303 231 295 264 25 348 355 3 15 48 27 46 97 52 49 21 42 58 358 231 359 37 68 275 265 276 8 307 302 291 287 286
293 309 320 325 327 327 320 311 307 304 281 296 350 33 286 311 35 330 36 360 319 360 7 42 47 72 32 75 12 4 246 304 318 47 359 141 280 259 232 279 280 276 282 283 287
278 293 309 324 329 329 322 314 295 8 27 98 67 16 350 349 328 350 357 22 25 340 15 36 42 55 32 80 232 254 321 300 251 313 359 276 263 277 282 237 252 264 274 276 284
275 283 301 326 335 337 346 5 13 357 28 254 301 303 328 305 336 38 11 358 48 49 21 14 31 243 200 143 113 115 159 256 254 289 332 269 274 285 286 239 248 254 255 267 265
264 273 298 328 340 337 36 59 94 228 313 295 269 290 347 346 351 5 10 65 70 155 13 7 237 153 129 114 87 97 316 276 294 306 316 295 289 278 296 249 214 217 252 261 269
249 258 280 328 342 29 31 104 120 163 278 301 244 69 301 12 344 314 31 7 89 134 132 212 326 144 127 129 339 232 194 246 239 321 233 304 293 316 281 300 313 265 262 276 261
236 235 248 331 24 313 15 105 63 91 47 265 305 358 31 49 350 345 52 91 45 214 182 230 141 152 22 284 150 291 187 291 300 33 269 30 283 300 354 314 300 280 268 256 256
224 191 167 60 273 45 314 52 59 46 352 19 275 311 83 134 330 357 329 70 177 170 113 302 175 170 203 243 176 257 360 310 351 96 34 321 67 274 4 303 269 252 254 257 272
233 147 134 111 66 16 3 11 46 42 259 333 72 327 4 14 132 337 29 51 76 112 77 247 297 202 208 72 296 336 339 42 57 93 360 241 122 272 234 210 259 267 259 261 282
192 146 161 158 167 146 78 7 38 178 349 300 316 358 274 221 272 93 77 289 192 51 340 206 202 123 155 122 39 62 43 329 344 1 236 142 10 249 269 236 225 244 266 284 304
153 139 103 12 228 145 55 56 177 163 242 340 357 18 255 154 216 165 124 264 216 92 99 139 314 176 167 209 179 126 137 156 252 283 283 15 239 251 235 270 250 256 269 282 284
141 68 99 190 109 3 93 122 231 238 349 344 305 198 288 281 206 213 208 221 206 179 171 129 288 35 213 138 121 142 166 128 102 114 11 235 275 278 287 267 255 261 275 282 293
85 96 34 126 79 42 103 212 212 200 149 115 272 190 273 278 21 72 208 195 199 187 139 179 351 13 172 102 46 183 147 75 4 332 290 279 276 241 286 258 242 292 298 302 302
117 156 22 48 84 80 216 222 239 250 148 156 202 299 261 317 210 248 248 285 135 108 82 125 114 258 92 201 177 145 211 69 111 152 194 301 266 209 230 234 238 266 274 278 293
166 226 7 1 141 212 193 180 228 186 326 89 154 183 208 128 268 259 241 233 258 151 166 182 149 220 217 109 63 192 193 163 136 236 236 198 268 215 226 217 192 279 291 297 290
151 114 323 204 223 205 246 256 247 172 202 178 222 217 178 185 236 221 233 293 217 175 157 186 261 357 333 11 9 225 196 178 102 90 205 159 269 301 253 231 266 315 309 305 309
129 170 258 243 303 193 168 214 235 224 231 188 185 140 123 207 203 223 262 29 345 239 137 143 191 190 209 193 133 213 200 200 165 162 248 221 270 272 271 292 300 305 296 306 302
198 232 180 197 217 201 171 188 192 218 223 192 238 196 165 225 188 225 225 226 232 235 121 155 227 206 250 237 230 239 212 196 216 219 219 274 247 270 285 294 297 301 300 302 306
216 177 147 183 216 194 213 235 239 226 173 220 233 188 198 212 195 191 170 181 206 166 167 179 264 78 282 306 257 267 237 226 238 239 251 258 276 266 279 282 289 283 287 306 307
194 94 165 209 171 187 217 231 240 218 216 215 205 206 211 231 221 150 156 181 173 176 176 168 158 105 271 336 322 281 207 214 220 202 221 240 248 282 277 280 285 279 312 304 304